IBOBET Agen Bola Online | Agen Judi Bola Online Terbesar DI indonesia
cara bermain pot limit omaha di genkpoker
cara bermain super 10 di genkpoker

Jackpot

Texas Poker Multi Jackpot System

Kini Telah hadir Jackpot SUPER ROYAL FLUSH

Kini Telah hadir Jackpot 2000 (khusus table VIP keatas).

Ikutilah global jackpot yang tersedia di system kami, dengan system jackpot terbaru dan pertama di indonesia, anda dapat membeli jackpot dengan harga 100 rupiah saja dan menangkan hadiahnya hingga puluhan juta rupiah.

Jackpot bukanlah suatu keharusan untuk dibeli, namun kami memberikan suatu fitur tambahan untuk member tercinta dari www.idgenk.net.

Terdapat tiga pilihan harga jackpot yang bisa anda beli yaitu :100,500,1000 dan 2000(khusus table VIP Keatas) rupiah.

Hadiah dari Multi jackpot system www.idgenk.net

  1. full house x 10 harga jackpot yang anda beli.
      (contoh:anda membeli 1000 maka:1000 X10 = 10.000)
  2. four of kind x 250 harga jackpot yang anda beli
      (contoh:anda membeli 1000 maka:1000 X250 = 250.000)
  3. Straight flush x 1200
      (contoh:anda membeli 1000 maka:1000 X1200 = 1.200.000)
  4. Royal flush x 10000 harga jackpot yang anda beli
      (contoh:anda membeli 1000 maka:1000 X10000 = 10.000.000)
  5. SUPER ROYAL FLUSH x 30000 harga jackpot yang anda beli
      (contoh:anda membeli 1000 maka:1000 X30000 = 30.000.000)

Kondisi kartu

  1. full house adalah kondisi kartu dimana kartu anda dan kartu tengah dengan total 7 kartu bisa mendapatkan nilai 5 kartu dengan kombinasi 1 tris(three of kind) dan 1 pair, contoh 3 kartu 10 dan 2 kartu 5
  2. Four of kind adalah kondisi kartu dimana kartu anda dan kartu tengah dengan total 7 kartu bisa mendapatkan nilai 5 kartu dengan kombinasi 4 kartu yang sama jumlah dan 1 kartu apapun juga contoh anda mendapatkan 4 buah kartu angka 3 dan 1 kartu apapun.
  3. Staright flush adalah kondisi kartu dimana kartu anda dan kartu tengah dengan total 7 kartu bisa mendapatkan nilai 5 kartu dengan kombinasi seri / staright dengan kembang yang sama contoh : urutan kartu dari angka 5, 6, 7, 8 , 9 10 dengan kembang yg sama misalnya as hati
  4. Royal flush adalah kondisi kartu dimana kartu anda dan kartu tengah dengan total 7 kartu bisa mendapatkan nilai 5 kartu dengan kombinasi seri / staright dengan kembang yang sama tetapi kartu tersebut haruslah dimulai dari 10. contoh 10, Queen, Jack, King dan aces dengan kembang yang sama
  5. Super Royal flush adalah kondisi kartu dimana Kedua kartu anda digabung dengan 3 kartu pertama meja haruslah royal flush. contoh kartu anda 10,Queen kembang sama dan 3 kartu pertama meja adalah Jack, King dan aces dengan kembang yang sama

Demikian adalah penjelasan dari Multi Jackpot www.idgenk.net terima kasih dan selamat bermain salam hoki dari kami

Texas Poker Jackpot Winner

TOP SUPER ROYAL FLUSH
No.TanggalNamaPriceWin
122/09 02:24TAUN101Super Royal flush30,000,000
221/09 14:11ROYALJOZZSuper Royal flush60,000,000
321/09 13:43BA_ATIYOSuper Royal flush6,000,000
421/09 12:23B8EKCBJIYMSuper Royal flush3,000,000
521/09 08:32TUPO25Super Royal flush3,000,000
TOP ROYAL FLUSH
No.TanggalNamaPriceWin
122/09 03:16GANYANG27Royal flush10,000,000
222/09 03:10BDCC9BA9Royal flush2,000,000
322/09 02:56AMARASULI8Royal flush5,000,000
422/09 02:54CARIDIRoyal flush500,000
522/09 02:46BD5217E2Royal flush2,000,000
TOP STRAIGHT FLUSH
No.TanggalNamaPriceWin
122/09 03:16OMING8008Straight Flush1,200,000
222/09 03:14XXX1088Straight Flush1,200,000
322/09 03:14SARAYUCHStraight Flush600,000
422/09 03:13PASTILAT65Straight Flush120,000
522/09 03:12JHON18Straight Flush240,000
LATEST JACKPOT
No.TanggalNamaPriceWin
122/09 03:16REYPEA99Full House2,000
222/09 03:16KB4171SYFull House20,000
322/09 03:16VO0DOOFull House10,000
422/09 03:16B0Y_90Full House2,000
522/09 03:16OMING8008Straight Flush1,200,000
622/09 03:16YOKO1781Full House2,000
722/09 03:16JUARA1000KFull House5,000
822/09 03:16SIATAT_CANFull House2,000
922/09 03:16A48FEFFAFull House1,000
1022/09 03:16MERCY_Full House2,000
1122/09 03:16METRIX666Full House2,000
1222/09 03:16F4RUQ123Full House1,000
1322/09 03:16SEGOPECELFull House2,000
1422/09 03:16DISINYALIRFull House2,000
1522/09 03:16AJIASINFull House2,000
1622/09 03:16MINTAJP19Full House1,000
1722/09 03:16MIDORI666Full House20,000
1822/09 03:16RT123456Full House10,000
1922/09 03:16ARJO_JEGETFull House2,000
2022/09 03:16DE445A1BFull House1,000
2122/09 03:16BOLTUS82Full House5,000
2222/09 03:16PAPARAYAFull House2,000
2322/09 03:16GANYANG27Royal flush10,000,000
2422/09 03:16SHOU_167Full House10,000
2522/09 03:16EZ3CH13LFull House10,000
2622/09 03:16IMAM461Full House5,000
2722/09 03:16GONDOL2703Full House1,000
2822/09 03:16WOON69Full House5,000
2922/09 03:16AJIB007Full House5,000
3022/09 03:16KINONG77Full House2,000
3122/09 03:16APRAK99Full House1,000
3222/09 03:16LELALELEFull House2,000
3322/09 03:16GOZIOFour Of A Kind25,000
3422/09 03:16OPOMENE866Four Of A Kind50,000
3522/09 03:16JAJATANFull House10,000
3622/09 03:16I5Y8AENV8HFull House20,000
3722/09 03:16TERLATIHFull House20,000
3822/09 03:16SAMPURNA2Full House5,000
3922/09 03:16LEDUM234Full House20,000
4022/09 03:16POLLER09Full House5,000
4122/09 03:16NYAMOS123Full House2,000
4222/09 03:16KOE2Full House5,000
4322/09 03:16DITSFull House20,000
4422/09 03:16CAIRTFull House10,000
4522/09 03:15OMPA2000Full House2,000
4622/09 03:15INISINTOFull House5,000
4722/09 03:15ASO37Full House10,000
4822/09 03:15C7E98AA7Full House5,000
4922/09 03:15SE7EN77Full House2,000
5022/09 03:15DODOKKUDAFour Of A Kind50,000

Domino Multi Jackpot System

Ikutilah global jackpot yang tersedia di system kami, dengan system jackpot terbaru dan pertama di indonesia, anda dapat membeli jackpot dengan harga 100 rupiah saja dan menangkan hadiahnya hingga puluhan juta rupiah.

Jackpot bukanlah suatu keharusan untuk dibeli, namun kami memberikan suatu fitur tambahan untuk member tercinta dari www.idgenk.net.

Terdapat tiga pilihan harga jackpot yang bisa anda beli yaitu :100,500 dan 1000 rupiah.

Hadiah dari Multi jackpot system www.idgenk.net

  1. Murni Kecil x 50 harga jackpot yang anda beli.
      (contoh:anda membeli 1000 maka:1000 X 50 = 50.000)
  2. Murni Besar x 50 harga jackpot yang anda beli
      (contoh:anda membeli 1000 maka:1000 X 50 = 50.000)
  3. BALAK x 100 harga jackpot yang anda beli
      (contoh:anda membeli 1000 maka:1000 X 100 = 100.000)
  4. ENAM DEWA x 6666 harga jackpot yang anda beli
      (contoh:anda membeli 1000 maka:1000 X 6666 = 6.666.000)

Demikian adalah penjelasan dari Multi Jackpot www.idgenk.net terima kasih dan selamat bermain salam hoki dari kami

Domino Jackpot Winner

TOP ENAM DEWA
No.TanggalNamaPriceWin
122/09 01:09WISMA92murni enam3,333,000
222/09 01:08ABAY888888murni enam3,333,000
322/09 00:44AMSEO99murni enam3,333,000
422/09 00:43DYCK22murni enam6,666,000
521/09 23:35TEMPE444murni enam666,600
TOP BALAK
No.TanggalNamaPriceWin
122/09 03:08PHCP123balak100,000
222/09 03:05IBP89725balak10,000
322/09 03:04KUDA5777balak100,000
422/09 03:03RA81ESbalak100,000
522/09 03:00SUMMON99balak50,000
LATEST JACKPOT
No.TanggalNamaPriceWin
122/09 03:16KUY88888murni kecil50,000
222/09 03:15MP4DEMANGGPmurni besar50,000
322/09 03:15BUSABU77murni kecil50,000
422/09 03:15ISAF20murni besar50,000
522/09 03:14ISAF20murni besar50,000
622/09 03:14AGUS9194murni kecil25,000
722/09 03:13BLACK_OPSmurni kecil50,000
822/09 03:13JONKUR02murni kecil25,000
922/09 03:13MONYET986murni besar5,000
1022/09 03:13BEGUG20murni besar50,000
1122/09 03:12RIGAHAYUlucky992,500
1222/09 03:10Z03LF1K4Rmurni kecil50,000
1322/09 03:10R1JWNM8F74murni besar50,000
1422/09 03:09CAN83murni kecil5,000
1522/09 03:08UCOXX_7263murni kecil50,000
1622/09 03:08PHCP123balak100,000
1722/09 03:08JPWINNER87murni besar50,000
1822/09 03:08DADO378murni kecil25,000
1922/09 03:07ZULSGPmurni kecil25,000
2022/09 03:07MOBMAR72murni besar50,000
2122/09 03:05IBP89725balak10,000
2222/09 03:05SARFILO13murni besar5,000
2322/09 03:04KUDA5777balak100,000
2422/09 03:04SUMMON99murni besar25,000
2522/09 03:03RA81ESbalak100,000
2622/09 03:02LESYIANA66murni besar50,000
2722/09 03:01FIAN566murni kecil50,000
2822/09 03:01REVYmurni kecil5,000
2922/09 03:00SUMMON99balak50,000
3022/09 03:00GARANmurni besar50,000
3122/09 02:59AZH26murni kecil50,000
3222/09 02:59J4LI8888murni kecil25,000
3322/09 02:59JPWINNER87murni besar50,000
3422/09 02:58SATRIASJTmurni besar50,000
3522/09 02:58NYALANDARmurni besar5,000
3622/09 02:57GEGER057balak100,000
3722/09 02:57EEHWEH16murni kecil50,000
3822/09 02:56PKPUmurni besar25,000
3922/09 02:56GATHUK99lucky9910,000
4022/09 02:56LONTAR50murni kecil25,000
4122/09 02:56SO1818murni kecil25,000
4222/09 02:55VIOLET72murni besar50,000
4322/09 02:55BULUKS66murni kecil5,000
4422/09 02:53YUGHA_77murni besar25,000
4522/09 02:53C20IRUL455lucky9950,000
4622/09 02:53DEWAFM9191murni kecil25,000
4722/09 02:53RH4848murni kecil5,000
4822/09 02:52BEBEC98murni kecil50,000
4922/09 02:51PKPUmurni kecil25,000
5022/09 02:51DADO378murni kecil25,000

Ceme Multi Jackpot System

Jackpot dilihat dari gabungan kartu pemain dengan kartu bandar. Bandar harus membeli jackpot sebanyak jumlah player yang sedang duduk. Sebagai contoh bila terdapat 3 pemain duduk bermain, dan bandar memutuskan untuk membeli jackpot Rp 1.000, maka pada periode tersebut bandar akan membeli jackpot sebanyak 3xRp1.000 = Rp3.000.

Jackpot bukanlah suatu keharusan untuk dibeli, namun kami memberikan suatu fitur tambahan untuk member tercinta dari www.idgenk.net.

Terdapat tiga pilihan harga jackpot yang bisa anda beli yaitu :100,500 dan 1000 rupiah.

Hadiah dari Multi jackpot system www.idgenk.net

  1. Murni Kecil x 50 harga jackpot yang anda beli.
      (contoh:anda membeli 1000 maka:1000 X 50 = 50.000)
  2. Murni Besar x 50 harga jackpot yang anda beli
      (contoh:anda membeli 1000 maka:1000 X 50 = 50.000)
  3. BALAK x 200 harga jackpot yang anda beli
      (contoh:anda membeli 1000 maka:1000 X 200 = 200.000)
  4. ENAM DEWA x 6666 harga jackpot yang anda beli
      (contoh:anda membeli 1000 maka:1000 X 6666 = 6.666.000)

Demikian adalah penjelasan dari Multi Jackpot www.idgenk.net terima kasih dan selamat bermain salam hoki dari kami

Ceme Jackpot Winner

TOP ENAM DEWA
No.TanggalNamaPriceWin
122/09 03:15THIO10murni enam6,666,000
222/09 03:15ZE13murni enam666,600
322/09 03:13UDEDmurni enam6,666,000
422/09 03:13AHMAD7777murni enam666,600
522/09 03:12TAUFIK103murni enam666,600
TOP BALAK
No.TanggalNamaPriceWin
122/09 03:16GERNIbalak200,000
222/09 03:16WIDIA11balak200,000
322/09 03:16JEJENG23balak20,000
422/09 03:16TOPWIN01balak200,000
522/09 03:16NANDEO1balak20,000
LATEST JACKPOT
No.TanggalNamaPriceWin
122/09 03:16IBLIS92murni kecil50,000
222/09 03:16GERNIbalak200,000
322/09 03:16WIDIA11murni besar50,000
422/09 03:16ASOY88murni besar25,000
522/09 03:16WIDIA11balak200,000
622/09 03:16JEJENG23balak20,000
722/09 03:16TOPWIN01balak200,000
822/09 03:16NANDEO1balak20,000
922/09 03:16DUPAK06murni kecil5,000
1022/09 03:16ERBEmurni kecil50,000
1122/09 03:16N61S1N6murni kecil25,000
1222/09 03:16B4YU5Kmurni besar50,000
1322/09 03:16B4YU5Kmurni besar50,000
1422/09 03:16DAKKENObalak200,000
1522/09 03:16JIMZ77murni kecil50,000
1622/09 03:16DB88D508balak100,000
1722/09 03:15NOO9murni besar50,000
1822/09 03:15THIO10murni enam6,666,000
1922/09 03:15ZE13murni enam666,600
2022/09 03:15ERBEmurni kecil50,000
2122/09 03:15SUHENDRI88murni kecil5,000
2222/09 03:15KUPLE212murni kecil25,000
2322/09 03:15KUPRET14murni kecil25,000
2422/09 03:15ATEP134murni kecil50,000
2522/09 03:15SUITAKmurni kecil50,000
2622/09 03:15HOTEL75balak100,000
2722/09 03:15BOBY7474murni kecil25,000
2822/09 03:15JAPRA979murni kecil50,000
2922/09 03:15GOJEK777murni kecil50,000
3022/09 03:14IKAN4466murni kecil25,000
3122/09 03:14DENZCLUBmurni kecil25,000
3222/09 03:14GUNDUL2020murni besar50,000
3322/09 03:14BEJO588murni kecil50,000
3422/09 03:14WINNR21murni kecil50,000
3522/09 03:14CROOT1140murni besar25,000
3622/09 03:14KODIR63murni besar50,000
3722/09 03:14MRRAINmurni besar5,000
3822/09 03:14Z1857KCmurni besar25,000
3922/09 03:14ARIE6421murni kecil50,000
4022/09 03:14ARIE6421murni kecil50,000
4122/09 03:14SMILEFIRE9murni kecil5,000
4222/09 03:14SAPUTRO25murni besar50,000
4322/09 03:14LAKRONmurni besar5,000
4422/09 03:14LBBB889balak20,000
4522/09 03:14MVP03balak200,000
4622/09 03:14RONALD079balak200,000
4722/09 03:14SETANDRO7balak200,000
4822/09 03:14DB88A305murni besar50,000
4922/09 03:14SUKUNmurni kecil50,000
5022/09 03:14HENDRIK27_murni kecil50,000